User: anonymous   Login
Location: Unspecified
(0.0000°N, 0.0000°E)
Time: 18:41:31
(UTC+02:00)
Language:

Cosmos 1536 - Orbit

View from above orbital plane
View from above orbital plane
View from above satellite
View from above satellite

Ground track
Ground track

The orbit data is extracted from the following two-line orbital elements,

1 14699U 84013A   15107.10559319  .00003329  00000-0  24060-3 0  9994
2 14699 082.5298 015.7885 0011898 231.3431 128.6731 15.03709639693990
Epoch (UTC): 17 April 2015 02:32:03
Eccentricity: 0.0011898
inclination: 82.5298°
perigee height: 547 km
apogee height: 564 km
right ascension of ascending node: 15.7885°
argument of perigee: 231.3431°
revolutions per day: 15.03709639
mean anomaly at epoch: 128.6731°
orbit number at epoch: 69399

The dashed part of the orbit path shows where the satellite is in the earth's shadow,  

DLR